AC2EV Weather Reports


time (UTC)temp
C
wind
direction
speed
KPH
gust
KPH
rain 1hr
cm
rain 24hr
cm
rain mn
cm
humidity
%
barometer
mb
20260509150229 17 130 0.0 1.6 0.00 0.00 0.00 64 1006.0
20260509145230 16 130 0.0 1.6 0.00 0.00 0.00 68 1006.0
20260509144229 15 130 0.0 1.6 0.00 0.00 0.00 69 1006.2
20260509143730 15 134 0.0 1.6 0.00 0.00 0.00 68 1006.2
20260509143230 15 132 0.0 1.6 0.00 0.00 0.00 68 1006.3
20260509142919 15 131 0.0 1.6 0.00 0.00 0.00 69 1006.3
20260509142229 15 0 0.0 0.0 0.00 0.00 0.00 70 1006.3
20260509141730 15 0 0.0 6.4 0.00 0.00 0.00 71 1006.4
20260509141352 14 132 0.0 6.4 0.00 0.00 0.00 72 1006.4
20260509140920 14 131 0.0 0.0 0.00 0.00 0.00 72 1006.4
20260509140229 14 0 0.0 4.8 0.00 0.00 0.00 72 1006.4
20260509135729 14 129 0.0 4.8 0.00 0.00 0.00 73 1006.4
20260509135230 13 129 0.0 4.8 0.00 0.00 0.00 73 1006.5
20260509134729 13 127 0.0 4.8 0.00 0.00 0.00 74 1006.5
20260509134231 13 127 0.0 4.8 0.00 0.00 0.00 73 1006.6
20260509133729 13 123 0.0 4.8 0.00 0.00 0.00 74 1006.6
20260509133231 13 121 0.0 6.4 0.00 0.00 0.00 74 1006.6
20260509132729 13 121 0.0 6.4 0.00 0.00 0.00 75 1006.7
20260509132230 13 115 0.0 4.8 0.00 0.00 0.00 76 1006.8
20260509131920 12 115 0.0 4.8 0.00 0.00 0.00 76 1006.9
20260509131231 12 110 0.0 1.6 0.00 0.00 0.00 76 1006.9
20260509130729 12 109 0.0 1.6 0.00 0.00 0.00 76 1006.9
20260509130231 12 109 0.0 1.6 0.00 0.00 0.00 76 1007.0
20260509125729 12 108 0.0 1.6 0.00 0.00 0.00 77 1007.0
20260509125229 12 108 0.0 0.0 0.00 0.00 0.00 77 1007.0
20260509124729 11 108 0.0 6.4 0.00 0.03 0.00 77 1007.1
20260509124229 11 107 0.0 6.4 0.00 0.03 0.00 77 1007.2
20260509123730 11 106 0.0 0.0 0.00 0.05 0.00 77 1007.3
20260509123232 11 105 0.0 0.0 0.00 0.05 0.00 77 1007.2
20260509122729 11 105 0.0 0.0 0.00 0.05 0.00 77 1007.2
20260509122229 11 104 0.0 0.0 0.00 0.05 0.00 76 1007.2
20260509121729 10 104 0.0 0.0 0.00 0.05 0.00 76 1007.2
20260509121230 10 104 0.0 0.0 0.00 0.05 0.00 76 1007.3
20260509120734 10 105 0.0 0.0 0.00 0.05 0.00 76 1007.1
20260509120229 9 0 0.0 0.0 0.00 0.05 0.00 76 1007.2
20260509115724 9 105 0.0 0.0 0.00 0.05 0.00 76 1007.3
20260509115217 8 105 0.0 0.0 0.00 0.05 0.00 75 1007.2
20260509114715 8 107 0.0 0.0 0.00 0.05 0.00 75 1007.2
20260509114216 8 0 0.0 0.0 0.00 0.05 0.00 75 1007.3
20260509113211 8 104 0.0 0.0 0.00 0.05 0.00 74 1007.4
20260509112212 8 104 0.0 0.0 0.00 0.05 0.00 74 1007.5
20260509111209 7 104 0.0 1.6 0.00 0.05 0.00 74 1007.4
20260509110912 7 104 0.0 1.6 0.00 0.05 0.00 74 1007.5
20260509110214 7 103 0.0 3.2 0.00 0.05 0.00 74 1007.4
20260509105208 7 103 0.0 1.6 0.00 0.05 0.00 74 1007.2
20260509104203 6 103 0.0 1.6 0.00 0.05 0.00 74 1007.3
20260509103916 6 103 0.0 0.0 0.00 0.05 0.00 74 1007.2
20260509103202 6 103 0.0 0.0 0.00 0.05 0.00 74 1007.2
20260509102202 6 103 0.0 0.0 0.00 0.05 0.00 73 1007.2
20260509101158 6 103 0.0 0.0 0.00 0.05 0.00 73 1007.2
20260509100653 6 103 0.0 0.0 0.00 0.05 0.00 72 1007.1
20260509100147 6 103 0.0 0.0 0.00 0.05 0.00 72 1007.1
20260509095641 6 103 0.0 0.0 0.00 0.05 0.00 72 1007.1
20260509095134 6 103 0.0 0.0 0.00 0.05 0.00 72 1007.2
20260509094635 6 103 0.0 0.0 0.00 0.05 0.00 72 1007.2
20260509094133 6 103 0.0 0.0 0.00 0.05 0.00 72 1007.2
20260509093632 6 103 0.0 0.0 0.00 0.05 0.00 72 1007.3
20260509093131 6 103 0.0 0.0 0.00 0.05 0.00 72 1007.1
20260509092631 6 103 0.0 0.0 0.00 0.05 0.00 72 1007.2
20260509092131 6 103 0.0 0.0 0.00 0.05 0.00 72 1007.2
20260509091630 6 103 0.0 0.0 0.00 0.05 0.00 72 1007.2
20260509091131 6 103 0.0 0.0 0.00 0.05 0.00 72 1007.2
20260509090629 6 103 0.0 0.0 0.00 0.05 0.00 72 1007.3
20260509090131 6 103 0.0 0.0 0.00 0.05 0.00 72 1007.3
20260509085629 6 103 0.0 0.0 0.00 0.05 0.00 72 1007.4
20260509085128 6 103 0.0 0.0 0.00 0.05 0.00 72 1007.4
20260509084629 6 103 0.0 0.0 0.00 0.05 0.00 72 1007.4
20260509084129 6 103 0.0 1.6 0.00 0.05 0.00 73 1007.5
20260509083630 5 103 0.0 1.6 0.00 0.05 0.00 73 1007.5
20260509083129 5 103 0.0 0.0 0.00 0.05 0.00 73 1007.5
20260509082629 5 103 0.0 0.0 0.00 0.05 0.00 73 1007.5
20260509082129 5 103 0.0 0.0 0.00 0.05 0.00 73 1007.6
20260509081629 5 103 0.0 0.0 0.00 0.05 0.00 73 1007.6
20260509081129 5 103 0.0 0.0 0.00 0.05 0.00 73 1007.6
20260509080629 5 103 0.0 0.0 0.00 0.05 0.00 73 1007.7
20260509080129 5 103 0.0 0.0 0.00 0.05 0.00 73 1007.7
20260509075629 5 103 0.0 0.0 0.00 0.05 0.00 73 1007.8
20260509075129 5 103 0.0 0.0 0.00 0.05 0.00 72 1007.8
20260509074629 5 103 0.0 0.0 0.00 0.05 0.00 72 1007.9
20260509074129 5 103 0.0 0.0 0.00 0.05 0.00 72 1007.8
20260509073629 6 103 0.0 0.0 0.00 0.05 0.00 72 1007.8
20260509073128 5 103 0.0 0.0 0.00 0.05 0.00 72 1007.9
20260509072629 5 103 0.0 0.0 0.00 0.05 0.00 72 1008.0
20260509072129 6 103 0.0 0.0 0.00 0.05 0.00 72 1008.1
20260509071629 6 103 0.0 0.0 0.00 0.05 0.00 72 1008.1
20260509071130 6 103 0.0 0.0 0.00 0.05 0.00 72 1008.1
20260509070629 6 103 0.0 0.0 0.00 0.05 0.00 72 1008.2
20260509070129 6 103 0.0 0.0 0.00 0.05 0.00 71 1008.3
20260509065629 6 103 0.0 0.0 0.00 0.05 0.00 71 1008.4
20260509065129 6 103 0.0 0.0 0.00 0.05 0.00 71 1008.3
20260509064629 6 103 0.0 0.0 0.00 0.05 0.00 71 1008.4
20260509064129 6 103 0.0 0.0 0.00 0.05 0.00 71 1008.4
20260509063629 6 103 0.0 0.0 0.00 0.05 0.00 71 1008.5
20260509063129 6 103 0.0 0.0 0.00 0.05 0.00 71 1008.5
20260509062630 6 103 0.0 0.0 0.00 0.05 0.00 71 1008.6
20260509062129 6 103 0.0 0.0 0.00 0.05 0.00 72 1008.6
20260509061629 6 103 0.0 0.0 0.00 0.05 0.00 72 1008.7
20260509061129 6 103 0.0 0.0 0.00 0.05 0.00 72 1008.7
20260509060629 6 103 0.0 0.0 0.00 0.05 0.00 72 1008.7
20260509060129 6 103 0.0 0.0 0.00 0.05 0.00 72 1008.9
20260509055626 6 103 0.0 0.0 0.00 0.05 0.00 73 1008.9
20260509055127 6 103 0.0 0.0 0.00 0.05 0.00 72 1008.9
20260509054627 6 103 0.0 0.0 0.00 0.05 0.00 72 1009.0
20260509054127 6 103 0.0 0.0 0.00 0.05 0.00 72 1009.0
20260509053626 6 103 0.0 0.0 0.00 0.05 0.00 72 1009.0
20260509053125 6 103 0.0 0.0 0.00 0.05 0.00 73 1009.1
20260509052625 6 103 0.0 0.0 0.00 0.05 0.00 73 1009.3
20260509052125 6 103 0.0 0.0 0.00 0.05 0.00 73 1009.3
20260509051626 6 103 0.0 0.0 0.00 0.05 0.00 73 1009.3
20260509051125 6 103 0.0 0.0 0.00 0.05 0.00 73 1009.3
20260509050622 6 103 0.0 0.0 0.00 0.05 0.00 74 1009.4
20260509050122 6 103 0.0 0.0 0.00 0.05 0.00 75 1009.4
20260509045620 6 103 0.0 0.0 0.00 0.05 0.00 76 1009.4
20260509045118 6 103 0.0 0.0 0.00 0.05 0.00 77 1009.5
20260509044702 6 103 0.0 0.0 0.00 0.05 0.00 78 1009.4
20260509044218 6 103 0.0 0.0 0.00 0.05 0.00 79 1009.4
20260509043728 6 103 0.0 0.0 0.00 0.05 0.00 80 1009.5
20260509015559 7 103 0.0 0.0 0.00 0.18 0.08 70 1010.0
20260509015057 7 103 0.0 0.0 0.00 0.18 0.08 69 1010.1
20260509014553 7 103 0.0 0.0 0.00 0.18 0.08 68 1010.1
20260509014052 7 103 0.0 0.0 0.00 0.18 0.08 69 1010.1
20260509013553 7 103 0.0 0.0 0.00 0.18 0.08 68 1010.0
20260509013053 7 103 0.0 0.0 0.00 0.20 0.08 68 1010.1
20260509012553 7 103 0.0 0.0 0.00 0.20 0.08 67 1010.1
20260509012052 8 103 0.0 0.0 0.00 0.20 0.08 66 1010.1
20260509011553 8 103 0.0 0.0 0.00 0.20 0.08 66 1010.1
20260509011052 8 103 0.0 0.0 0.00 0.20 0.08 64 1010.0
20260509010553 8 103 0.0 0.0 0.00 0.20 0.08 61 1009.9
20260509010049 8 103 0.0 0.0 0.00 0.20 0.08 58 1009.8
20260509005549 8 103 0.0 0.0 0.00 0.20 0.08 58 1009.7
20260509005049 8 103 0.0 0.0 0.00 0.20 0.08 58 1009.5
20260509004548 9 103 0.0 0.0 0.00 0.20 0.08 57 1009.5
20260509004048 9 103 0.0 0.0 0.00 0.20 0.08 57 1009.5
20260509003548 9 103 0.0 0.0 0.00 0.20 0.08 57 1009.3
20260509003048 9 104 0.0 0.0 0.00 0.20 0.08 57 1009.4
20260509002548 10 104 0.0 0.0 0.00 0.20 0.08 56 1009.4
20260509002050 10 103 0.0 0.0 0.00 0.20 0.08 55 1009.4
20260509001542 10 103 0.0 0.0 0.00 0.20 0.08 55 1009.4
20260509001042 10 103 0.0 0.0 0.00 0.20 0.08 56 1009.3
20260509000541 10 105 0.0 0.0 0.00 0.20 0.08 54 1009.4
20260509000039 10 105 0.0 0.0 0.00 0.20 0.08 54 1009.3
20260508235537 10 107 0.0 0.0 0.00 0.20 0.08 54 1009.3
20260508235035 10 107 0.0 0.0 0.00 0.20 0.08 53 1009.3
20260508234533 10 104 0.0 0.0 0.00 0.20 0.08 53 1009.3
20260508234031 10 104 0.0 0.0 0.00 0.20 0.08 53 1009.3
20260508233530 10 103 0.0 0.0 0.00 0.20 0.08 54 1009.2
20260508233029 10 104 0.0 0.0 0.00 0.20 0.08 53 1009.2
20260508232530 10 103 0.0 0.0 0.00 0.20 0.08 53 1009.2
20260508232029 11 103 0.0 0.0 0.00 0.20 0.08 53 1009.1
20260508231529 11 103 0.0 0.0 0.00 0.20 0.08 54 1009.1
20260508231030 11 103 0.0 0.0 0.00 0.20 0.08 55 1009.2
20260508230529 11 103 0.0 0.0 0.00 0.20 0.08 53 1009.2
20260508230030 11 103 0.0 0.0 0.00 0.20 0.08 53 1009.2
20260508225529 11 103 0.0 0.0 0.00 0.20 0.08 52 1009.1
20260508225030 11 103 0.0 0.0 0.00 0.20 0.08 51 1009.2
20260508224529 11 103 0.0 0.0 0.00 0.20 0.08 53 1009.2
20260508224026 11 103 0.0 0.0 0.00 0.20 0.08 53 1009.2
20260508223526 11 103 0.0 0.0 0.00 0.20 0.08 53 1009.2
20260508223025 11 103 0.0 0.0 0.00 0.20 0.08 53 1009.2
20260508222523 11 103 0.0 0.0 0.00 0.20 0.08 53 1009.2
20260508222021 11 103 0.0 0.0 0.00 0.20 0.08 53 1009.3
20260508221518 11 103 0.0 0.0 0.00 0.20 0.08 52 1009.3
20260508221019 12 103 0.0 0.0 0.00 0.20 0.08 55 1009.2
20260508220519 12 103 0.0 0.0 0.00 0.20 0.08 52 1009.2
20260508220017 12 103 0.0 0.0 0.00 0.20 0.08 51 1009.3
20260508215514 12 103 0.0 0.0 0.00 0.20 0.08 52 1009.4
20260508215013 12 103 0.0 0.0 0.00 0.20 0.08 55 1009.3
20260508214510 12 103 0.0 0.0 0.00 0.20 0.08 56 1009.4
20260508214008 12 103 0.0 0.0 0.00 0.20 0.08 56 1009.4
20260508213508 12 103 0.0 0.0 0.00 0.20 0.08 55 1009.4
20260508213006 12 103 0.0 0.0 0.00 0.20 0.08 57 1009.4
20260508212504 12 103 0.0 0.0 0.00 0.20 0.08 57 1009.4
20260508212004 12 103 0.0 0.0 0.00 0.20 0.08 57 1009.4
20260508211503 12 103 0.0 0.0 0.00 0.20 0.08 55 1009.5
20260508211003 12 103 0.0 0.0 0.00 0.20 0.08 56 1009.5
20260508210503 12 103 0.0 0.0 0.00 0.20 0.08 57 1009.5
20260508210005 12 103 0.0 0.0 0.00 0.20 0.08 57 1009.5
20260508205503 12 103 0.0 0.0 0.00 0.20 0.08 57 1009.6
20260508205005 12 103 0.0 0.0 0.00 0.20 0.08 58 1009.6
20260508204502 12 103 0.0 0.0 0.00 0.20 0.08 57 1009.7
20260508204005 12 103 0.0 0.0 0.00 0.20 0.08 57 1009.7
20260508203502 12 103 0.0 1.6 0.00 0.20 0.08 57 1009.7
20260508203004 12 103 0.0 1.6 0.00 0.20 0.08 59 1009.8
20260508202503 12 103 0.0 0.0 0.00 0.20 0.08 58 1009.8
20260508202002 12 103 0.0 0.0 0.00 0.20 0.08 57 1009.9
20260508201503 12 103 0.0 0.0 0.00 0.20 0.08 58 1010.0
20260508201003 12 103 0.0 0.0 0.00 0.20 0.08 58 1010.1
20260508200502 12 103 0.0 0.0 0.00 0.20 0.08 60 1010.2
20260508200004 12 103 0.0 0.0 0.00 0.20 0.08 60 1010.3
20260508195503 12 103 0.0 0.0 0.00 0.20 0.08 60 1010.2
20260508195002 11 103 0.0 0.0 0.00 0.20 0.08 62 1010.2
20260508194502 11 103 0.0 0.0 0.00 0.20 0.08 61 1010.3
20260508194002 11 103 0.0 0.0 0.00 0.20 0.08 60 1010.4
20260508193503 11 103 0.0 0.0 0.00 0.20 0.08 61 1010.4
20260508193002 11 103 0.0 0.0 0.00 0.20 0.08 62 1010.4
20260508192504 11 103 0.0 1.6 0.00 0.20 0.08 63 1010.5
20260508192002 11 103 0.0 1.6 0.00 0.20 0.08 61 1010.6
20260508191502 11 103 0.0 0.0 0.00 0.20 0.08 62 1010.7
20260508191002 11 103 0.0 1.6 0.00 0.20 0.08 64 1010.7
20260508190503 10 103 0.0 1.6 0.00 0.20 0.08 63 1010.7
20260508190002 10 107 0.0 1.6 0.00 0.20 0.08 64 1010.7
20260508185503 10 107 0.0 4.8 0.00 0.20 0.08 65 1010.6
20260508185002 10 107 0.0 4.8 0.00 0.20 0.08 65 1010.6
20260508184502 11 112 0.0 3.2 0.00 0.20 0.08 62 1010.6
20260508183503 12 119 0.0 12.9 0.00 0.20 0.08 57 1010.5
20260508183003 12 208 0.0 1.6 0.00 0.20 0.08 47 1010.6
20260508182502 12 208 0.0 6.4 0.00 0.20 0.08 47 1010.5
20260508182002 12 208 0.0 6.4 0.00 0.20 0.08 48 1010.6
20260508181504 12 205 0.0 1.6 0.00 0.20 0.08 49 1010.6
20260508180959 12 205 0.0 4.8 0.00 0.20 0.08 49 1010.7
20260508180456 12 205 0.0 4.8 0.00 0.20 0.08 51 1010.7
20260508175955 12 204 0.0 0.0 0.00 0.20 0.08 51 1010.7
20260508175453 11 204 0.0 1.6 0.00 0.20 0.08 55 1010.7
20260508174951 11 204 0.0 1.6 0.00 0.20 0.08 53 1010.9
20260508174449 11 204 0.0 1.6 0.00 0.20 0.08 53 1010.9
20260508173949 11 204 0.0 8.0 0.00 0.20 0.08 57 1010.9
20260508173449 11 204 0.0 8.0 0.00 0.20 0.08 59 1011.0
20260508172949 11 201 0.0 0.0 0.00 0.20 0.08 56 1011.1
20260508172449 11 201 0.0 0.0 0.00 0.20 0.08 55 1011.0
20260508171949 11 201 0.0 1.6 0.00 0.20 0.08 57 1011.1
20260508171448 11 201 0.0 1.6 0.00 0.20 0.08 58 1011.1
20260508170443 11 201 0.0 1.6 0.00 0.20 0.08 57 1011.2
20260508165943 11 201 0.0 1.6 0.00 0.20 0.08 55 1011.2
20260508165443 11 201 0.0 0.0 0.00 0.20 0.08 57 1011.2
20260508164943 10 201 0.0 1.6 0.00 0.20 0.08 58 1011.3
20260508164443 10 201 0.0 12.9 0.00 0.20 0.08 58 1011.4
20260508163944 11 200 0.0 12.9 0.00 0.20 0.08 57 1011.5
20260508163443 11 242 0.0 3.2 0.00 0.20 0.08 59 1011.5
20260508162944 10 242 0.0 6.4 0.00 0.20 0.08 57 1011.6
20260508162442 9 244 0.0 6.4 0.00 0.20 0.08 60 1011.7
20260508161942 9 246 0.0 1.6 0.00 0.20 0.08 62 1011.7
20260508161443 10 246 0.0 11.3 0.00 0.20 0.08 66 1011.7
20260508160942 9 246 0.0 11.3 0.00 0.20 0.08 64 1011.9
20260508160443 9 248 0.0 4.8 0.00 0.20 0.08 64 1011.9
20260508155945 9 247 0.0 4.8 0.00 0.20 0.08 62 1011.9
20260508155441 9 248 0.0 4.8 0.00 0.20 0.08 64 1012.0
20260508154938 9 246 0.0 4.8 0.00 0.20 0.08 66 1012.0
20260508154439 9 0 0.0 0.0 0.00 0.20 0.08 68 1012.0
20260508153939 8 248 0.0 0.0 0.00 0.20 0.08 69 1012.0
20260508153438 8 0 0.0 0.0 0.00 0.20 0.08 73 1011.9
20260508152935 8 247 0.0 0.0 0.00 0.20 0.08 74 1012.0
20260508152432 8 0 0.0 1.6 0.00 0.20 0.08 74 1011.9
20260508151930 8 248 0.0 1.6 0.00 0.20 0.08 75 1011.8
20260508151432 8 248 0.0 6.4 0.00 0.20 0.08 78 1011.8
20260508150931 8 248 0.0 6.4 0.00 0.20 0.08 77 1011.9